Time,TemperatureF,DewpointF,PressureIn,WindDirection,WindDirectionDegrees,WindSpeedMPH,WindSpeedGustMPH,Humidity,HourlyPrecipIn,Conditions,Clouds,dailyrainin,SoftwareType,DateUTC
2013-03-26 20:41:00,35.1,30.4,29.74,WNW,292,0.0,0.0,83,0.00,,SKC,21.58,VWS V14.01,2013-03-27 01:41:00,
2013-03-26 20:42:00,35.1,30.4,29.74,WNW,292,0.0,0.0,83,0.00,,SKC,21.58,VWS V14.01,2013-03-27 01:42:00,
2013-03-26 20:43:00,30.6,12.7,29.74,WNW,292,0.0,0.0,47,0.00,,SKC,21.58,VWS V14.01,2013-03-27 01:43:00,
2013-03-26 20:44:00,30.6,12.7,30.47,WNW,292,0.0,0.0,47,0.00,,SKC,21.58,VWS V14.01,2013-03-27 01:44:00,
2013-03-26 20:45:00,30.4,12.6,30.47,WNW,292,0.0,0.0,47,0.00,,SKC,21.58,VWS V14.01,2013-03-27 01:45:00,
2013-03-26 20:46:00,30.2,12.4,30.50,WNW,292,0.0,0.0,47,0.00,,SKC,21.58,VWS V14.01,2013-03-27 01:46:00,
2013-03-26 20:47:00,30.2,12.4,30.50,WNW,292,0.0,0.0,47,0.00,,SKC,21.58,VWS V14.01,2013-03-27 01:47:00,
2013-03-26 20:49:00,30.2,12.9,30.50,WNW,292,0.0,0.0,48,0.00,,SKC,21.58,VWS V14.01,2013-03-27 01:49:00,
2013-03-26 20:50:00,30.2,12.9,30.50,WNW,292,0.0,0.0,48,0.00,,SKC,21.58,VWS V14.01,2013-03-27 01:50:00,
2013-03-26 20:51:00,30.0,12.7,30.50,WNW,292,0.0,0.0,48,0.00,,SKC,21.58,VWS V14.01,2013-03-27 01:51:00,
2013-03-26 20:52:00,30.0,12.7,30.50,WNW,292,0.0,0.0,48,0.00,,SKC,21.58,VWS V14.01,2013-03-27 01:52:00,
2013-03-26 20:53:00,30.0,12.7,30.50,WNW,292,0.0,0.0,48,0.00,,SKC,21.58,VWS V14.01,2013-03-27 01:53:00,
2013-03-26 20:54:00,29.8,12.6,30.50,WNW,292,0.0,0.0,48,0.00,,SKC,21.58,VWS V14.01,2013-03-27 01:54:00,
2013-03-26 20:55:00,29.8,12.6,30.50,WNW,292,0.0,0.0,48,0.00,,SKC,21.58,VWS V14.01,2013-03-27 01:55:00,
2013-03-26 20:56:00,29.8,12.6,30.50,WNW,292,0.0,0.0,48,0.00,,SKC,21.58,VWS V14.01,2013-03-27 01:56:00,
2013-03-26 20:57:00,30.0,12.7,30.50,WNW,292,0.0,0.0,48,0.00,,SKC,21.58,VWS V14.01,2013-03-27 01:57:00,
2013-03-26 20:58:00,30.0,12.7,30.50,WNW,292,0.0,0.0,48,0.00,,SKC,21.58,VWS V14.01,2013-03-27 01:58:00,
2013-03-26 20:59:00,30.2,12.9,30.50,WNW,292,0.0,0.0,48,0.00,,SKC,21.58,VWS V14.01,2013-03-27 01:59:00,
2013-03-26 21:01:00,30.0,12.7,30.50,WNW,292,0.0,0.0,48,0.00,,SKC,21.58,VWS V14.01,2013-03-27 02:01:00,
2013-03-26 21:02:00,29.8,12.6,30.47,WNW,292,0.0,0.0,48,0.58,,SKC,22.16,VWS V14.01,2013-03-27 02:02:00,
2013-03-26 21:03:00,29.8,12.6,30.47,WNW,292,0.0,0.0,48,0.58,,SKC,22.16,VWS V14.01,2013-03-27 02:03:00,
2013-03-26 21:04:00,29.7,12.9,30.47,WNW,292,0.0,0.0,49,0.58,,SKC,22.16,VWS V14.01,2013-03-27 02:04:00,
2013-03-26 21:06:00,29.7,12.9,30.47,WNW,292,0.0,0.0,49,0.58,,SKC,22.16,VWS V14.01,2013-03-27 02:06:00,
2013-03-26 21:07:00,29.3,12.5,30.47,WNW,292,0.0,0.0,49,0.58,,SKC,22.16,VWS V14.01,2013-03-27 02:07:00,
2013-03-26 21:08:00,29.3,12.5,30.47,WNW,292,0.0,0.0,49,0.58,,SKC,22.16,VWS V14.01,2013-03-27 02:08:00,
2013-03-26 21:09:00,29.3,12.5,30.47,WNW,292,0.0,0.0,49,0.58,,SKC,22.16,VWS V14.01,2013-03-27 02:09:00,
2013-03-26 21:10:00,29.3,12.5,30.47,WNW,292,0.0,0.0,49,0.58,,SKC,22.16,VWS V14.01,2013-03-27 02:10:00,
2013-03-26 21:11:00,29.3,12.5,30.47,WNW,292,0.0,0.0,49,0.58,,SKC,22.16,VWS V14.01,2013-03-27 02:11:00,
2013-03-26 21:12:00,29.1,12.4,30.47,WNW,292,0.0,0.0,49,0.58,,SKC,22.16,VWS V14.01,2013-03-27 02:12:00,
2013-03-26 21:13:00,28.9,12.2,30.47,WNW,292,0.0,0.0,49,0.58,,SKC,22.16,VWS V14.01,2013-03-27 02:13:00,
2013-03-26 21:14:00,28.8,12.0,30.47,WNW,292,0.0,0.0,49,0.58,,SKC,22.16,VWS V14.01,2013-03-27 02:14:00,
2013-03-26 21:15:00,28.8,12.5,30.47,WNW,292,0.0,0.0,50,0.58,,SKC,22.16,VWS V14.01,2013-03-27 02:15:00,
2013-03-26 21:16:00,28.8,12.5,30.47,WNW,292,0.0,0.0,50,0.58,,SKC,22.16,VWS V14.01,2013-03-27 02:16:00,
2013-03-26 21:17:00,28.6,12.3,30.44,WNW,292,0.0,0.0,50,0.58,,SKC,22.16,VWS V14.01,2013-03-27 02:17:00,
2013-03-26 21:18:00,28.6,12.3,30.44,WNW,292,0.0,0.0,50,0.58,,SKC,22.16,VWS V14.01,2013-03-27 02:18:00,
2013-03-26 21:19:00,28.6,12.3,30.44,WNW,292,0.0,0.0,50,0.58,,SKC,22.16,VWS V14.01,2013-03-27 02:19:00,
2013-03-26 21:20:00,28.6,12.3,30.44,WNW,292,0.0,0.0,50,0.58,,SKC,22.16,VWS V14.01,2013-03-27 02:20:00,
2013-03-26 21:21:00,28.4,12.6,30.44,WNW,292,0.0,0.0,51,0.58,,SKC,22.16,VWS V14.01,2013-03-27 02:21:00,
2013-03-26 21:22:00,28.4,12.6,30.44,WNW,292,0.0,0.0,51,0.58,,SKC,22.16,VWS V14.01,2013-03-27 02:22:00,
2013-03-26 21:23:00,28.4,12.6,30.44,WNW,292,0.0,0.0,51,0.58,,SKC,22.16,VWS V14.01,2013-03-27 02:23:00,
2013-03-26 21:24:00,28.4,12.6,30.44,WNW,292,0.0,0.0,51,0.58,,SKC,22.16,VWS V14.01,2013-03-27 02:24:00,
2013-03-26 21:25:00,28.4,12.6,30.44,WNW,292,0.0,0.0,51,0.58,,SKC,22.16,VWS V14.01,2013-03-27 02:25:00,
2013-03-26 21:26:00,28.4,12.6,30.44,WNW,292,0.0,0.0,51,0.58,,SKC,22.16,VWS V14.01,2013-03-27 02:26:00,
2013-03-26 21:27:00,28.2,12.4,30.44,WNW,292,0.0,0.0,51,0.58,,SKC,22.16,VWS V14.01,2013-03-27 02:27:00,
2013-03-26 21:28:00,28.2,12.4,30.44,WNW,292,0.0,0.0,51,0.58,,SKC,22.16,VWS V14.01,2013-03-27 02:28:00,
2013-03-26 21:29:00,28.0,12.3,30.44,WNW,292,0.0,0.0,51,0.58,,SKC,22.16,VWS V14.01,2013-03-27 02:29:00,
2013-03-26 21:30:00,28.0,12.3,30.44,WNW,292,0.0,0.0,51,0.58,,SKC,22.16,VWS V14.01,2013-03-27 02:30:00,
2013-03-26 21:31:00,28.0,12.3,30.44,WNW,292,0.0,0.0,51,0.58,,SKC,22.16,VWS V14.01,2013-03-27 02:31:00,
2013-03-26 21:32:00,27.9,12.1,30.44,WNW,292,0.0,0.0,51,0.58,,SKC,22.16,VWS V14.01,2013-03-27 02:32:00,
2013-03-26 21:33:00,27.9,12.1,30.44,WNW,292,0.0,0.0,51,0.58,,SKC,22.16,VWS V14.01,2013-03-27 02:33:00,
2013-03-26 21:34:00,27.9,12.1,30.44,WNW,292,0.0,0.0,51,0.58,,SKC,22.16,VWS V14.01,2013-03-27 02:34:00,
2013-03-26 21:35:00,27.9,12.1,30.44,WNW,292,0.0,0.0,51,0.58,,SKC,22.16,VWS V14.01,2013-03-27 02:35:00,
2013-03-26 21:36:00,27.9,12.1,30.44,WNW,292,0.0,0.0,51,0.58,,SKC,22.16,VWS V14.01,2013-03-27 02:36:00,
2013-03-26 21:37:00,27.7,11.9,30.44,WNW,292,0.0,0.0,51,0.58,,SKC,22.16,VWS V14.01,2013-03-27 02:37:00,
2013-03-26 21:38:00,27.7,11.9,30.44,WNW,292,0.0,0.0,51,0.58,,SKC,22.16,VWS V14.01,2013-03-27 02:38:00,
2013-03-26 21:39:00,27.7,11.9,30.44,WNW,292,0.0,0.0,51,0.58,,SKC,22.16,VWS V14.01,2013-03-27 02:39:00,
2013-03-26 21:40:00,27.7,11.9,30.44,WNW,292,0.0,0.0,51,0.58,,SKC,22.16,VWS V14.01,2013-03-27 02:40:00,
2013-03-26 21:41:00,27.7,11.9,30.44,WNW,292,0.0,0.0,51,0.58,,SKC,22.16,VWS V14.01,2013-03-27 02:41:00,
2013-03-26 21:42:00,27.5,12.2,30.44,WNW,292,0.0,0.0,52,0.58,,SKC,22.16,VWS V14.01,2013-03-27 02:42:00,
2013-03-26 21:43:00,27.5,12.2,30.44,WNW,292,0.0,0.0,52,0.58,,SKC,22.16,VWS V14.01,2013-03-27 02:43:00,
2013-03-26 21:44:00,27.5,12.2,30.44,WNW,292,0.0,0.0,52,0.58,,SKC,22.16,VWS V14.01,2013-03-27 02:44:00,
2013-03-26 21:45:00,27.5,12.2,30.44,WNW,292,0.0,0.0,52,0.58,,SKC,22.16,VWS V14.01,2013-03-27 02:45:00,
2013-03-26 21:46:00,27.5,12.2,30.44,WNW,292,0.0,0.0,52,0.58,,SKC,22.16,VWS V14.01,2013-03-27 02:46:00,
2013-03-26 21:47:00,27.5,12.2,30.47,WNW,292,0.0,0.0,52,0.58,,SKC,22.16,VWS V14.01,2013-03-27 02:47:00,
2013-03-26 21:48:00,27.5,12.2,30.47,WNW,292,0.0,0.0,52,0.58,,SKC,22.16,VWS V14.01,2013-03-27 02:48:00,
2013-03-26 21:49:00,27.5,12.2,30.47,WNW,292,0.0,0.0,52,0.58,,SKC,22.16,VWS V14.01,2013-03-27 02:49:00,
2013-03-26 21:50:00,27.5,12.2,30.47,WNW,292,0.0,0.0,52,0.58,,SKC,22.16,VWS V14.01,2013-03-27 02:50:00,
2013-03-26 21:51:00,27.5,12.2,30.47,WNW,292,0.0,0.0,52,0.58,,SKC,22.16,VWS V14.01,2013-03-27 02:51:00,
2013-03-26 21:52:00,27.5,12.2,30.47,WNW,292,0.0,0.0,52,0.58,,SKC,22.16,VWS V14.01,2013-03-27 02:52:00,
2013-03-26 21:53:00,27.5,12.2,30.47,WNW,292,0.0,0.0,52,0.58,,SKC,22.16,VWS V14.01,2013-03-27 02:53:00,
2013-03-26 21:54:00,27.3,12.0,30.47,WNW,292,0.0,0.0,52,0.58,,SKC,22.16,VWS V14.01,2013-03-27 02:54:00,
2013-03-26 21:55:00,27.3,12.0,30.47,WNW,292,0.0,0.0,52,0.58,,SKC,22.16,VWS V14.01,2013-03-27 02:55:00,
2013-03-26 21:56:00,27.3,12.0,30.47,WNW,292,0.0,0.0,52,0.58,,SKC,22.16,VWS V14.01,2013-03-27 02:56:00,
2013-03-26 21:57:00,27.1,11.9,30.47,WNW,292,0.0,0.0,52,0.58,,SKC,22.16,VWS V14.01,2013-03-27 02:57:00,
2013-03-26 21:59:00,27.1,11.9,30.47,WNW,292,0.0,0.0,52,0.58,,SKC,22.16,VWS V14.01,2013-03-27 02:59:00,
2013-03-26 22:00:00,27.1,11.9,30.47,WNW,292,0.0,0.0,52,0.58,,SKC,22.16,VWS V14.01,2013-03-27 03:00:00,
2013-03-26 22:01:00,27.0,12.1,30.47,WNW,292,0.0,0.0,53,0.58,,SKC,22.16,VWS V14.01,2013-03-27 03:01:00,
2013-03-26 22:02:00,27.0,12.1,30.47,WNW,292,0.0,0.0,53,0.58,,SKC,22.16,VWS V14.01,2013-03-27 03:02:00,
2013-03-26 22:03:00,27.0,12.1,30.47,WNW,292,0.0,0.0,53,0.58,,SKC,22.16,VWS V14.01,2013-03-27 03:03:00,
2013-03-26 22:04:00,27.0,12.1,30.47,WNW,292,0.0,0.0,53,0.00,,SKC,22.16,VWS V14.01,2013-03-27 03:04:00,
2013-03-26 22:05:00,27.1,12.3,30.47,WNW,292,0.0,0.0,53,0.00,,SKC,22.16,VWS V14.01,2013-03-27 03:05:00,
2013-03-26 22:06:00,27.1,12.3,30.47,WNW,292,0.0,0.0,53,0.00,,SKC,22.16,VWS V14.01,2013-03-27 03:06:00,
2013-03-26 22:07:00,27.0,12.1,30.47,WNW,292,0.0,0.0,53,0.00,,SKC,22.16,VWS V14.01,2013-03-27 03:07:00,
2013-03-26 22:08:00,27.0,12.1,30.47,WNW,292,0.0,0.0,53,0.00,,SKC,22.16,VWS V14.01,2013-03-27 03:08:00,
2013-03-26 22:09:00,27.0,12.1,30.47,WNW,292,0.0,0.0,53,0.00,,SKC,22.16,VWS V14.01,2013-03-27 03:09:00,
2013-03-26 22:10:00,27.0,12.1,30.47,WNW,292,0.0,0.0,53,0.00,,SKC,22.16,VWS V14.01,2013-03-27 03:10:00,
2013-03-26 22:11:00,27.0,12.1,30.47,WNW,292,0.0,0.0,53,0.00,,SKC,22.16,VWS V14.01,2013-03-27 03:11:00,
2013-03-26 22:12:00,26.8,12.0,30.47,WNW,292,0.0,0.0,53,0.00,,SKC,22.16,VWS V14.01,2013-03-27 03:12:00,
2013-03-26 22:13:00,26.8,12.0,30.47,WNW,292,0.0,0.0,53,0.00,,SKC,22.16,VWS V14.01,2013-03-27 03:13:00,
2013-03-26 22:14:00,26.8,12.4,30.47,WNW,292,0.0,0.0,54,0.00,,SKC,22.16,VWS V14.01,2013-03-27 03:14:00,
2013-03-26 22:16:00,26.8,12.4,30.47,WNW,292,0.0,0.0,54,0.00,,SKC,22.16,VWS V14.01,2013-03-27 03:16:00,
2013-03-26 22:17:00,26.6,12.2,30.47,WNW,292,0.0,0.0,54,0.00,,SKC,22.16,VWS V14.01,2013-03-27 03:17:00,
2013-03-26 22:18:00,26.6,12.2,30.47,WNW,292,0.0,0.0,54,0.00,,SKC,22.16,VWS V14.01,2013-03-27 03:18:00,
2013-03-26 22:20:00,26.4,12.5,30.47,WNW,292,0.0,0.0,55,0.00,,SKC,22.16,VWS V14.01,2013-03-27 03:20:00,
2013-03-26 22:22:00,26.2,12.3,30.47,WNW,292,0.0,0.0,55,0.00,,SKC,22.16,VWS V14.01,2013-03-27 03:22:00,
2013-03-26 22:23:00,26.2,12.3,30.47,WNW,292,0.0,0.0,55,0.00,,SKC,22.16,VWS V14.01,2013-03-27 03:23:00,
2013-03-26 22:24:00,26.2,12.3,30.47,WNW,292,0.0,0.0,55,0.00,,SKC,22.16,VWS V14.01,2013-03-27 03:24:00,
2013-03-26 22:25:00,26.2,12.3,30.47,WNW,292,0.0,0.0,55,0.00,,SKC,22.16,VWS V14.01,2013-03-27 03:25:00,
2013-03-26 22:26:00,26.4,12.5,30.47,WNW,292,0.0,0.0,55,0.00,,SKC,22.16,VWS V14.01,2013-03-27 03:26:00,
2013-03-26 22:27:00,26.2,12.3,30.47,WNW,292,0.0,0.0,55,0.00,,SKC,22.16,VWS V14.01,2013-03-27 03:27:00,
2013-03-26 22:28:00,26.2,12.3,30.47,WNW,292,0.0,0.0,55,0.00,,SKC,22.16,VWS V14.01,2013-03-27 03:28:00,
2013-03-26 22:29:00,26.4,12.9,30.47,WNW,292,0.0,0.0,56,0.00,,SKC,22.16,VWS V14.01,2013-03-27 03:29:00,
2013-03-26 22:30:00,26.4,12.9,30.47,WNW,292,0.0,0.0,56,0.00,,SKC,22.16,VWS V14.01,2013-03-27 03:30:00,
2013-03-26 22:31:00,26.4,12.9,30.47,WNW,292,0.0,0.0,56,0.00,,SKC,22.16,VWS V14.01,2013-03-27 03:31:00,
2013-03-26 22:32:00,26.4,12.9,30.47,WNW,292,0.0,0.0,56,0.00,,SKC,22.16,VWS V14.01,2013-03-27 03:32:00,
2013-03-26 22:33:00,26.4,12.9,30.47,WNW,292,0.0,0.0,56,0.00,,SKC,22.16,VWS V14.01,2013-03-27 03:33:00,
2013-03-26 22:34:00,26.2,12.7,30.47,WNW,292,0.0,0.0,56,0.00,,SKC,22.16,VWS V14.01,2013-03-27 03:34:00,
2013-03-26 22:35:00,26.2,12.7,30.47,WNW,292,0.0,0.0,56,0.00,,SKC,22.16,VWS V14.01,2013-03-27 03:35:00,
2013-03-26 22:36:00,26.1,12.5,30.47,WNW,292,0.0,0.0,56,0.00,,SKC,22.16,VWS V14.01,2013-03-27 03:36:00,
2013-03-26 22:37:00,26.1,12.5,30.47,WNW,292,0.0,0.0,56,0.00,,SKC,22.16,VWS V14.01,2013-03-27 03:37:00,
2013-03-26 22:38:00,26.1,12.5,30.47,WNW,292,0.0,0.0,56,0.00,,SKC,22.16,VWS V14.01,2013-03-27 03:38:00,
2013-03-26 22:39:00,26.1,12.5,30.47,WNW,292,0.0,0.0,56,0.00,,SKC,22.16,VWS V14.01,2013-03-27 03:39:00,
2013-03-26 22:40:00,26.1,12.5,30.47,WNW,292,0.0,0.0,56,0.00,,SKC,22.16,VWS V14.01,2013-03-27 03:40:00,
2013-03-26 22:41:00,26.1,12.5,30.47,WNW,292,0.0,0.0,56,0.00,,SKC,22.16,VWS V14.01,2013-03-27 03:41:00,
2013-03-26 22:42:00,25.9,12.4,30.47,WNW,292,0.0,0.0,56,0.00,,SKC,22.16,VWS V14.01,2013-03-27 03:42:00,
2013-03-26 22:43:00,25.9,12.4,30.47,WNW,292,0.0,0.0,56,0.00,,SKC,22.16,VWS V14.01,2013-03-27 03:43:00,
2013-03-26 22:44:00,25.7,12.2,30.47,WNW,292,0.0,0.0,56,0.00,,SKC,22.16,VWS V14.01,2013-03-27 03:44:00,
2013-03-26 22:45:00,25.7,12.2,30.47,WNW,292,0.0,0.0,56,0.00,,SKC,22.16,VWS V14.01,2013-03-27 03:45:00,
2013-03-26 22:46:00,25.7,12.2,30.47,WNW,292,0.0,0.0,56,0.00,,SKC,22.16,VWS V14.01,2013-03-27 03:46:00,
2013-03-26 22:47:00,25.7,12.2,30.47,WNW,292,0.0,0.0,56,0.00,,SKC,22.16,VWS V14.01,2013-03-27 03:47:00,
2013-03-26 22:48:00,25.7,12.2,30.47,WNW,292,0.0,0.0,56,0.00,,SKC,22.16,VWS V14.01,2013-03-27 03:48:00,
2013-03-26 22:49:00,25.9,12.4,30.47,WNW,292,0.0,0.0,56,0.00,,SKC,22.16,VWS V14.01,2013-03-27 03:49:00,
2013-03-26 22:50:00,25.9,12.4,30.47,WNW,292,0.0,0.0,56,0.00,,SKC,22.16,VWS V14.01,2013-03-27 03:50:00,
2013-03-26 22:51:00,25.7,12.2,30.47,WNW,292,0.0,0.0,56,0.00,,SKC,22.16,VWS V14.01,2013-03-27 03:51:00,
2013-03-26 22:52:00,25.7,12.2,30.47,WNW,292,0.0,0.0,56,0.00,,SKC,22.16,VWS V14.01,2013-03-27 03:52:00,
2013-03-26 22:53:00,25.7,12.2,30.47,WNW,292,0.0,0.0,56,0.00,,SKC,22.16,VWS V14.01,2013-03-27 03:53:00,
2013-03-26 22:54:00,25.7,12.2,30.47,WNW,292,0.0,0.0,56,0.00,,SKC,22.16,VWS V14.01,2013-03-27 03:54:00,
2013-03-26 22:55:00,25.7,12.2,30.47,WNW,292,0.0,0.0,56,0.00,,SKC,22.16,VWS V14.01,2013-03-27 03:55:00,
2013-03-26 22:56:00,25.7,12.6,30.47,WNW,292,0.0,0.0,57,0.00,,SKC,22.16,VWS V14.01,2013-03-27 03:56:00,
2013-03-26 22:57:00,25.5,12.4,30.47,WNW,292,0.0,0.0,57,0.00,,SKC,22.16,VWS V14.01,2013-03-27 03:57:00,
2013-03-26 22:58:00,25.5,12.4,30.47,WNW,292,0.0,0.0,57,0.00,,SKC,22.16,VWS V14.01,2013-03-27 03:58:00,
2013-03-26 22:59:00,25.5,12.4,30.47,WNW,292,0.0,0.0,57,0.00,,SKC,22.16,VWS V14.01,2013-03-27 03:59:00,
2013-03-26 23:00:00,25.5,12.4,30.47,WNW,292,0.0,0.0,57,0.00,,SKC,22.16,VWS V14.01,2013-03-27 04:00:00,
2013-03-26 23:01:00,25.3,12.6,30.47,WNW,292,0.0,0.0,58,0.00,,SKC,22.16,VWS V14.01,2013-03-27 04:01:00,
2013-03-26 23:03:00,25.3,12.6,30.47,WNW,292,0.0,0.0,58,0.00,,SKC,22.16,VWS V14.01,2013-03-27 04:03:00,
2013-03-26 23:04:00,25.3,12.6,30.47,WNW,292,0.0,0.0,58,0.00,,SKC,22.16,VWS V14.01,2013-03-27 04:04:00,
2013-03-26 23:05:00,25.3,12.6,30.47,WNW,292,0.0,0.0,58,0.00,,SKC,22.16,VWS V14.01,2013-03-27 04:05:00,
2013-03-26 23:06:00,25.3,12.6,30.47,WNW,292,0.0,0.0,58,0.00,,SKC,22.16,VWS V14.01,2013-03-27 04:06:00,
2013-03-26 23:07:00,25.2,12.5,30.47,WNW,292,0.0,0.0,58,0.00,,SKC,22.16,VWS V14.01,2013-03-27 04:07:00,
2013-03-26 23:08:00,25.2,12.5,30.47,WNW,292,0.0,0.0,58,0.00,,SKC,22.16,VWS V14.01,2013-03-27 04:08:00,
2013-03-26 23:09:00,25.2,12.5,30.47,WNW,292,0.0,0.0,58,0.00,,SKC,22.16,VWS V14.01,2013-03-27 04:09:00,
2013-03-26 23:10:00,25.2,12.5,30.47,WNW,292,0.0,0.0,58,0.00,,SKC,22.16,VWS V14.01,2013-03-27 04:10:00,
2013-03-26 23:11:00,25.0,12.3,30.47,WNW,292,0.0,0.0,58,0.00,,SKC,22.16,VWS V14.01,2013-03-27 04:11:00,
2013-03-26 23:12:00,25.0,12.3,30.47,WNW,292,0.0,0.0,58,0.00,,SKC,22.16,VWS V14.01,2013-03-27 04:12:00,
2013-03-26 23:13:00,25.0,12.7,30.47,WNW,292,0.0,0.0,59,0.00,,SKC,22.16,VWS V14.01,2013-03-27 04:13:00,
2013-03-26 23:14:00,25.0,12.7,30.47,WNW,292,0.0,0.0,59,0.00,,SKC,22.16,VWS V14.01,2013-03-27 04:14:00,
2013-03-26 23:15:00,25.0,12.7,30.47,WNW,292,0.0,0.0,59,0.00,,SKC,22.16,VWS V14.01,2013-03-27 04:15:00,
2013-03-26 23:16:00,25.0,12.7,30.44,WNW,292,0.0,0.0,59,0.00,,SKC,22.16,VWS V14.01,2013-03-27 04:16:00,
2013-03-26 23:17:00,25.0,12.7,30.44,WNW,292,0.0,0.0,59,0.00,,SKC,22.16,VWS V14.01,2013-03-27 04:17:00,
2013-03-26 23:18:00,25.0,12.7,30.44,WNW,292,0.0,0.0,59,0.00,,SKC,22.16,VWS V14.01,2013-03-27 04:18:00,
2013-03-26 23:19:00,24.8,12.9,30.44,WNW,292,0.0,0.0,60,0.00,,SKC,22.16,VWS V14.01,2013-03-27 04:19:00,
2013-03-26 23:20:00,24.8,12.9,30.44,WNW,292,0.0,0.0,60,0.00,,SKC,22.16,VWS V14.01,2013-03-27 04:20:00,
2013-03-26 23:21:00,25.0,12.7,30.44,WNW,292,0.0,0.0,59,0.00,,SKC,22.16,VWS V14.01,2013-03-27 04:21:00,
2013-03-26 23:22:00,25.0,12.7,30.44,WNW,292,0.0,0.0,59,0.00,,SKC,22.16,VWS V14.01,2013-03-27 04:22:00,
2013-03-26 23:23:00,25.0,12.7,30.44,WNW,292,0.0,0.0,59,0.00,,SKC,22.16,VWS V14.01,2013-03-27 04:23:00,
2013-03-26 23:24:00,25.0,12.7,30.44,WNW,292,0.0,0.0,59,0.00,,SKC,22.16,VWS V14.01,2013-03-27 04:24:00,
2013-03-26 23:25:00,25.0,13.1,30.44,WNW,292,0.0,0.0,60,0.00,,SKC,22.16,VWS V14.01,2013-03-27 04:25:00,
2013-03-26 23:26:00,24.8,12.9,30.44,WNW,292,0.0,0.0,60,0.00,,SKC,22.16,VWS V14.01,2013-03-27 04:26:00,
2013-03-26 23:27:00,24.8,12.9,30.44,WNW,292,0.0,0.0,60,0.00,,SKC,22.16,VWS V14.01,2013-03-27 04:27:00,
2013-03-26 23:28:00,24.8,12.9,30.44,WNW,292,0.0,0.0,60,0.00,,SKC,22.16,VWS V14.01,2013-03-27 04:28:00,
2013-03-26 23:29:00,24.8,13.3,30.44,WNW,292,0.0,0.0,61,0.00,,SKC,22.16,VWS V14.01,2013-03-27 04:29:00,
2013-03-26 23:30:00,24.8,13.3,30.44,WNW,292,0.0,0.0,61,0.00,,SKC,22.16,VWS V14.01,2013-03-27 04:30:00,
2013-03-26 23:31:00,24.8,13.3,30.47,WNW,292,0.0,0.0,61,0.00,,SKC,22.16,VWS V14.01,2013-03-27 04:31:00,
2013-03-26 23:32:00,24.8,13.3,30.47,WNW,292,0.0,0.0,61,0.00,,SKC,22.16,VWS V14.01,2013-03-27 04:32:00,
2013-03-26 23:33:00,24.8,13.3,30.47,WNW,292,0.0,0.0,61,0.00,,SKC,22.16,VWS V14.01,2013-03-27 04:33:00,
2013-03-26 23:34:00,24.8,13.3,30.47,WNW,292,0.0,0.0,61,0.00,,SKC,22.16,VWS V14.01,2013-03-27 04:34:00,
2013-03-26 23:35:00,24.8,13.3,30.47,WNW,292,0.0,0.0,61,0.00,,SKC,22.16,VWS V14.01,2013-03-27 04:35:00,
2013-03-26 23:36:00,24.8,13.6,30.47,WNW,292,0.0,0.0,62,0.00,,SKC,22.16,VWS V14.01,2013-03-27 04:36:00,
2013-03-26 23:37:00,24.8,13.6,30.47,WNW,292,0.0,0.0,62,0.00,,SKC,22.16,VWS V14.01,2013-03-27 04:37:00,
2013-03-26 23:39:00,25.0,13.4,30.47,WNW,292,0.0,0.0,61,0.00,,SKC,22.16,VWS V14.01,2013-03-27 04:39:00,
2013-03-26 23:40:00,25.0,13.8,30.47,WNW,292,0.0,0.0,62,0.00,,SKC,22.16,VWS V14.01,2013-03-27 04:40:00,
2013-03-26 23:41:00,24.8,13.6,30.47,WNW,292,0.0,0.0,62,0.00,,SKC,22.16,VWS V14.01,2013-03-27 04:41:00,
2013-03-26 23:42:00,24.8,13.6,30.47,WNW,292,0.0,0.0,62,0.00,,SKC,22.16,VWS V14.01,2013-03-27 04:42:00,
2013-03-26 23:43:00,24.8,13.6,30.47,WNW,292,0.0,0.0,62,0.00,,SKC,22.16,VWS V14.01,2013-03-27 04:43:00,
2013-03-26 23:44:00,24.6,13.5,30.47,WNW,292,0.0,0.0,62,0.00,,SKC,22.16,VWS V14.01,2013-03-27 04:44:00,
2013-03-26 23:45:00,24.6,13.5,30.47,WNW,292,0.0,0.0,62,0.00,,SKC,22.16,VWS V14.01,2013-03-27 04:45:00,
2013-03-26 23:46:00,24.4,13.3,30.47,WNW,292,0.0,0.0,62,0.00,,SKC,22.16,VWS V14.01,2013-03-27 04:46:00,
2013-03-26 23:47:00,24.4,13.3,30.47,WNW,292,0.0,0.0,62,0.00,,SKC,22.16,VWS V14.01,2013-03-27 04:47:00,
2013-03-26 23:48:00,24.4,13.3,30.47,WNW,292,0.0,0.0,62,0.00,,SKC,22.16,VWS V14.01,2013-03-27 04:48:00,
2013-03-26 23:49:00,24.4,13.3,30.47,WNW,292,0.0,0.0,62,0.00,,SKC,22.16,VWS V14.01,2013-03-27 04:49:00,
2013-03-26 23:50:00,24.4,13.7,30.47,WNW,292,0.0,0.0,63,0.00,,SKC,22.16,VWS V14.01,2013-03-27 04:50:00,
2013-03-26 23:51:00,24.4,13.7,30.47,WNW,292,0.0,0.0,63,0.00,,SKC,22.16,VWS V14.01,2013-03-27 04:51:00,
2013-03-26 23:52:00,24.4,13.7,30.47,WNW,292,0.0,0.0,63,0.00,,SKC,22.16,VWS V14.01,2013-03-27 04:52:00,
2013-03-26 23:53:00,24.4,13.7,30.47,WNW,292,0.0,0.0,63,0.00,,SKC,22.16,VWS V14.01,2013-03-27 04:53:00,
2013-03-26 23:54:00,24.4,13.7,30.47,WNW,292,0.0,0.0,63,0.00,,SKC,22.16,VWS V14.01,2013-03-27 04:54:00,
2013-03-26 23:56:00,24.3,13.5,30.47,WNW,292,0.0,0.0,63,0.00,,SKC,22.16,VWS V14.01,2013-03-27 04:56:00,
2013-03-26 23:57:00,24.3,13.9,30.47,WNW,292,0.0,0.0,64,0.00,,SKC,22.16,VWS V14.01,2013-03-27 04:57:00,
2013-03-26 23:58:00,24.3,13.9,30.47,WNW,292,0.0,0.0,64,0.00,,SKC,22.16,VWS V14.01,2013-03-27 04:58:00,
2013-03-26 23:59:00,24.3,13.9,30.47,WNW,292,0.0,0.0,64,0.00,,SKC,22.16,VWS V14.01,2013-03-27 04:59:00,